Location: Audinghen
(50.8518°N, 1.6129°E)
Time: 08:25:08
(UTC+00:00)

Landsat 4 - Pass Details

Date: 07 August 2020
Orbit: 504 x 524 km, 98.2° (Epoch: 26 September)

Event Time Altitude Azimuth Distance (km) Brightness Sun altitude
Rises 00:13:34 0° 16° (NNE) 2,669 8.7 -22.7°
Reaches altitude 10° 00:15:42 10° 18° (NNE) 1,773 7.5 -22.7°
Enters shadow 00:19:19 69° 77° (ENE) 563 3.8 -22.7°
